This is the latest recevied weather packets stored in our database for station/object WD4IXD-WX. If no packets are shown the sender has not sent any weather packets the latest 10 day(s).
| Time | Temp. | Humidity | Pressure | Rain* | Wind** | Luminosity | Snow |
|---|---|---|---|---|---|---|---|
| 1777757104 | 10.56° C | 16% | 1022.9 hPa | 0 mm | - | 842 W/m² | - |
| 1777756804 | 10° C | 19% | 1022.9 hPa | 0 mm | - | 854 W/m² | - |
| 1777756504 | 10° C | 17% | 1022.9 hPa | 0 mm | - | 867 W/m² | - |
| 1777756204 | 10° C | 17% | 1023 hPa | 0 mm | - | 877 W/m² | - |
| 1777755904 | 9.44° C | 20% | 1023 hPa | 0 mm | - | 888 W/m² | - |
| 1777755604 | 10° C | 18% | 1023.1 hPa | 0 mm | - | 896 W/m² | - |
| 1777755304 | 10.56° C | 22% | 1023.1 hPa | 0 mm | - | 904 W/m² | - |
| 1777755004 | 10° C | 21% | 1023.1 hPa | 0 mm | - | 912 W/m² | - |
| 1777754703 | 9.44° C | 20% | 1023.2 hPa | 0 mm | - | 919 W/m² | - |
| 1777754404 | 9.44° C | 20% | 1023.2 hPa | 0 mm | - | 925 W/m² | - |
| 1777754103 | 9.44° C | 22% | 1023.2 hPa | 0 mm | - | 930 W/m² | - |
| 1777753804 | 9.44° C | 20% | 1023.3 hPa | 0 mm | - | 940 W/m² | - |
| 1777753504 | 9.44° C | 17% | 1023.3 hPa | 0 mm | - | 946 W/m² | - |
| 1777753204 | 9.44° C | 20% | 1023.3 hPa | 0 mm | - | 953 W/m² | - |
| 1777752904 | 9.44° C | 22% | 1023.3 hPa | 0 mm | - | 962 W/m² | - |
| 1777752603 | 8.89° C | 19% | 1023.3 hPa | 0 mm | - | 965 W/m² | - |
| 1777752304 | 9.44° C | 20% | 1023.4 hPa | 0 mm | - | 972 W/m² | - |
| 1777752004 | 9.44° C | 23% | 1023.3 hPa | 0 mm | - | 977 W/m² | - |
| 1777751704 | 8.33° C | 23% | 1023.3 hPa | 0 mm | - | 983 W/m² | - |
| 1777751404 | 8.89° C | 24% | 1023.3 hPa | 0 mm | - | 986 W/m² | - |
| 1777751104 | 8.89° C | 22% | 1023.3 hPa | 0 mm | - | 986 W/m² | - |
| 1777750804 | 8.89° C | 23% | 1023.3 hPa | 0 mm | - | 990 W/m² | - |
| 1777750504 | 8.33° C | 24% | 1023.3 hPa | 0 mm | - | 991 W/m² | - |
| 1777750204 | 8.33° C | 21% | 1023.4 hPa | 0 mm | - | 997 W/m² | - |
| 1777749904 | 8.33° C | 26% | 1023.4 hPa | 0 mm | - | 1000 W/m² | - |
* Rain latest hour (hover to see other rain measurements)
** Current wind speed in m/s (hover to see current wind gust speed)